TimeMDT,TemperatureF,Dew PointF,Humidity,Sea Level PressureIn,VisibilityMPH,Wind Direction,Wind SpeedMPH,Gust SpeedMPH,PrecipitationIn,Events,Conditions,WindDirDegrees,DateUTC
12:53 AM,42.1,36.0,79,29.99,10.0,South,3.5,-,N/A,,Clear,180,2013-10-12 06:53:00
1:53 AM,41.0,35.1,79,30.01,10.0,SSW,3.5,-,N/A,,Scattered Clouds,210,2013-10-12 07:53:00
2:53 AM,37.9,34.0,86,30.03,10.0,SSW,5.8,-,N/A,,Clear,210,2013-10-12 08:53:00
3:53 AM,37.9,34.0,86,30.05,10.0,SW,4.6,-,N/A,,Clear,220,2013-10-12 09:53:00
4:53 AM,37.0,34.0,89,30.07,10.0,SSW,5.8,-,N/A,,Clear,210,2013-10-12 10:53:00
5:53 AM,36.0,33.1,89,30.11,10.0,SSW,6.9,-,N/A,,Clear,210,2013-10-12 11:53:00
6:53 AM,35.1,33.1,92,30.14,10.0,SSW,5.8,-,N/A,,Partly Cloudy,210,2013-10-12 12:53:00
7:53 AM,39.0,36.0,89,30.17,10.0,SSW,4.6,-,N/A,,Clear,210,2013-10-12 13:53:00
8:53 AM,48.0,39.9,74,30.18,10.0,Variable,3.5,-,N/A,,Clear,0,2013-10-12 14:53:00
9:53 AM,54.0,39.9,59,30.18,10.0,Calm,Calm,-,N/A,,Clear,0,2013-10-12 15:53:00
10:53 AM,59.0,33.1,38,30.18,10.0,East,11.5,-,N/A,,Clear,100,2013-10-12 16:53:00
11:53 AM,61.0,30.0,31,30.17,10.0,ESE,15.0,20.7,N/A,,Partly Cloudy,120,2013-10-12 17:53:00
12:53 PM,63.0,32.0,31,30.14,10.0,SE,11.5,21.9,N/A,,Clear,130,2013-10-12 18:53:00
1:53 PM,64.0,30.0,28,30.11,10.0,SE,15.0,21.9,N/A,,Clear,140,2013-10-12 19:53:00
2:53 PM,64.9,30.9,28,30.10,10.0,ESE,11.5,26.5,N/A,,Clear,120,2013-10-12 20:53:00
3:53 PM,64.9,30.9,28,30.09,10.0,South,15.0,23.0,N/A,,Clear,170,2013-10-12 21:53:00
4:53 PM,64.0,30.9,29,30.08,10.0,SE,13.8,24.2,N/A,,Clear,140,2013-10-12 22:53:00
5:53 PM,61.0,30.9,32,30.11,10.0,SSE,13.8,-,N/A,,Clear,150,2013-10-12 23:53:00
6:53 PM,54.0,30.9,41,30.14,10.0,SE,8.1,-,N/A,,Clear,130,2013-10-13 00:53:00
7:53 PM,51.1,30.0,44,30.15,10.0,SE,10.4,-,N/A,,Clear,140,2013-10-13 01:53:00
8:53 PM,51.1,30.9,46,30.14,10.0,SE,11.5,-,N/A,,Clear,140,2013-10-13 02:53:00
9:53 PM,48.9,30.9,50,30.14,10.0,SSE,11.5,-,N/A,,Clear,150,2013-10-13 03:53:00
10:53 PM,48.9,33.1,54,30.14,10.0,SE,11.5,-,N/A,,Clear,140,2013-10-13 04:53:00
11:53 PM,48.9,34.0,56,30.15,10.0,SE,9.2,-,N/A,,Clear,130,2013-10-13 05:53:00